Location: Highland Meadows Observing Site
(48.4428°N, 114.5461°W)
Time: 19:26:45
(UTC-06:00)

Amateur Radio Satellites - All Passes

Search period start: 29 April 2016 18:56
Search period end: 30 April 2016 18:56
Location: Highland Meadows Observing Site, 48.4428°N, 114.5461°W

Satellite Date Start Highest point End Downlink Frequencies (MHz)
Time Altitude Azimuth
CUBESAT XI-V 29 Apr 19:01:51 19:06:29 55° 100° (E) 19:11:05 437.345
MOZHAYETS 4 29 Apr 19:04:39 19:08:09 22° 298° (WNW) 19:11:39
CUTE-I 29 Apr 19:07:47 19:13:07 79° 256° (WSW) 19:18:28 437.470
SO-50 29 Apr 19:21:48 19:22:24 10° 254° (WSW) 19:23:01 436.795
CANX-2 29 Apr 19:24:30 19:26:43 14° 59° (ENE) 19:28:56 2200.000
KKS-1 29 Apr 19:30:22 19:30:43 10° 307° (NW) 19:31:04 437.445
M-CUBED/EXP-1 PRIME 29 Apr 19:35:02 19:39:43 61° 253° (WSW) 19:44:22 437.505
Cosmos 2491 29 Apr 19:35:14 19:44:05 78° 264° (W) 19:52:50 435.465 / 435.565
AO-85 29 Apr 19:38:05 19:40:28 13° 5° (N) 19:42:48 145.980
Cubesat XI-IV 29 Apr 19:51:44 19:56:36 35° 264° (W) 20:01:29 437.490
YUBILEINY 29 Apr 19:52:31 20:00:56 55° 90° (E) 20:09:21 435.215
CUTE 1.7 + AOD 2 29 Apr 19:56:33 19:59:58 24° 65° (ENE) 20:03:23 437.475
Cosmos 2504 29 Apr 19:56:50 19:59:38 13° 73° (ENE) 20:02:25 435.465 / 435.565
AUBIESAT-1 29 Apr 19:57:12 20:01:40 45° 256° (WSW) 20:06:06 437.475
CINEMA 3 29 Apr 20:00:09 20:04:34 32° 66° (ENE) 20:09:00 145.822/145.860
NOAA 15 29 Apr 20:04:11 20:07:57 20° 270° (W) 20:11:44 137.62
LilacSat-2 29 Apr 20:13:08 20:15:42 17° 269° (W) 20:18:16 437.200
BEESAT 3 29 Apr 20:13:31 20:17:06 34° 119° (ESE) 20:20:42 437.485
GOMX 1 29 Apr 20:13:51 20:18:36 45° 263° (W) 20:23:42 467.674
BEESAT 2 29 Apr 20:14:30 20:17:38 22° 115° (ESE) 20:20:46 435.950
BRITE-PL 29 Apr 20:23:41 20:27:14 20° 272° (W) 20:31:02 437.365/2234.400
DOVE 4 29 Apr 20:27:21 20:32:22 62° 260° (W) 20:37:38 437.250
SEEDS 29 Apr 20:29:43 20:33:34 37° 69° (ENE) 20:37:27 437.485
PCSat 29 Apr 20:29:54 20:33:14 16° 335° (NNW) 20:36:33 145.827
HO-68 29 Apr 20:30:36 20:37:44 74° 69° (ENE) 20:44:53 435.675
STRAND 1 29 Apr 20:30:59 20:35:48 40° 98° (E) 20:40:36 437.568
NOAA 18 29 Apr 20:34:21 20:36:54 13° 273° (W) 20:39:28 137.9125
COMPASS 1 29 Apr 20:39:43 20:43:29 35° 69° (ENE) 20:47:16 437.405
CUBESAT XI-V 29 Apr 20:40:01 20:43:30 21° 299° (WNW) 20:47:01 437.345
CUTE-I 29 Apr 20:52:04 20:54:02 12° 274° (W) 20:56:01 437.470
CANX-2 29 Apr 20:57:48 21:02:02 75° 257° (WSW) 21:06:17 2200.000
Oscar 11 29 Apr 21:03:48 21:07:19 25° 64° (ENE) 21:10:49 145.826/435.025
FUNcube-1 29 Apr 21:10:10 21:13:50 25° 64° (ENE) 21:17:28 145.935
CUBEBUG 2 29 Apr 21:10:48 21:15:24 50° 71° (ENE) 21:19:56 437.445
UWE-3 29 Apr 21:11:08 21:15:24 37° 68° (ENE) 21:19:37 435.000/436.395/437.385
AAUSAT CUBESAT 2 29 Apr 21:13:41 21:17:46 64° 73° (ENE) 21:21:51 437.432
AO-85 29 Apr 21:18:43 21:22:48 24° 30° (NNE) 21:26:38 145.980
DELFI C3 29 Apr 21:22:15 21:24:58 18° 63° (ENE) 21:27:41 145.870
CUTE 1.7 + AOD 2 29 Apr 21:31:42 21:35:38 38° 263° (W) 21:39:36 437.475
RS-15 29 Apr 21:32:17 21:39:50 21° 97° (E) 21:47:36 29.354- 29.394
Cosmos 2491 29 Apr 21:33:56 21:39:24 19° 287° (WNW) 21:44:52 435.465 / 435.565
CINEMA 3 29 Apr 21:36:55 21:41:36 39° 264° (W) 21:46:19 145.822/145.860
Cosmos 2504 29 Apr 21:44:21 21:51:34 69° 95° (E) 21:58:41 435.465 / 435.565
HUMSAT D 29 Apr 21:49:00 21:51:51 18° 62° (ENE) 21:54:42 437.325/437.525
ZACube-1 29 Apr 21:49:32 21:54:00 59° 72° (ENE) 21:58:26 437.345
YUBILEINY 29 Apr 21:50:00 21:58:04 40° 293° (WNW) 22:06:10 435.215
BEESAT 3 29 Apr 21:51:13 21:54:49 33° 318° (NW) 21:58:26 437.485
BEESAT 2 29 Apr 21:51:21 21:55:14 47° 314° (NW) 21:59:08 435.950
PRISM 29 Apr 21:59:32 22:03:42 65° 103° (ESE) 22:07:50 437.425
SEEDS 29 Apr 22:06:03 22:09:25 23° 267° (W) 22:12:47 437.485
STRAND 1 29 Apr 22:10:24 22:14:53 32° 296° (WNW) 22:19:21 437.568
COMPASS 1 29 Apr 22:15:44 22:19:08 24° 266° (W) 22:22:34 437.405
PCSat 29 Apr 22:18:01 22:19:06 11° 2° (N) 22:20:10 145.827
HO-68 29 Apr 22:20:25 22:26:07 25° 269° (W) 22:31:52 435.675
AISAT 29 Apr 22:33:16 22:34:09 11° 54° (NE) 22:35:03 437.250
ESTCUBE 1 29 Apr 22:36:13 22:38:33 14° 57° (ENE) 22:40:52 437.505/2401.250
Oscar 11 29 Apr 22:39:13 22:43:16 39° 263° (W) 22:47:21 145.826/435.025
FUNcube-1 29 Apr 22:45:34 22:49:53 42° 262° (W) 22:54:09 145.935
UWE-3 29 Apr 22:47:53 22:51:55 29° 266° (W) 22:55:56 435.000/436.395/437.385
CUBEBUG 2 29 Apr 22:48:34 22:52:15 22° 268° (W) 22:55:56 437.445
AAUSAT CUBESAT 2 29 Apr 22:51:35 22:53:42 14° 271° (W) 22:55:49 437.432
AIST 2 29 Apr 22:54:34 22:58:41 70° 125° (SE) 23:02:49 435.215
DELFI C3 29 Apr 22:55:43 22:59:32 47° 261° (W) 23:03:23 145.870
AO-85 29 Apr 22:59:02 23:04:00 87° 238° (WSW) 23:08:29 145.980
UNISAT 6 29 Apr 23:01:23 23:04:07 16° 89° (E) 23:06:48 437.425
CUBEBUG 1 29 Apr 23:16:46 23:20:12 23° 63° (ENE) 23:23:40 437.445
TIGRISAT 29 Apr 23:19:35 23:23:04 23° 92° (E) 23:26:29 435.000
HUMSAT D 29 Apr 23:22:57 23:27:08 55° 260° (W) 23:31:17 437.325/437.525
ZACube-1 29 Apr 23:27:37 23:30:39 17° 270° (W) 23:33:40 437.345
50 SAT 29 Apr 23:31:59 23:35:14 30° 68° (ENE) 23:38:29 437.505
BEESAT 2 29 Apr 23:32:10 23:34:03 13° 336° (NNW) 23:35:55 435.950
BEESAT 3 29 Apr 23:33:00 23:33:43 10° 341° (NNW) 23:34:26 437.485
VELOX 1 29 Apr 23:34:18 23:38:17 34° 67° (ENE) 23:42:19 145.980
PRISM 29 Apr 23:36:03 23:38:33 16° 301° (WNW) 23:41:02 437.425
RS-15 29 Apr 23:38:44 23:50:00 74° 121° (ESE) 00:01:56 29.354- 29.394
Cosmos 2504 29 Apr 23:39:41 23:45:37 26° 297° (WNW) 23:51:31 435.465 / 435.565
ANTELSAT 29 Apr 23:42:45 23:46:54 40° 98° (E) 23:50:56 437.575/2403.000
DX 1 29 Apr 23:42:58 23:46:59 37° 67° (ENE) 23:51:02 434.975-435.025
GONETS M04 29 Apr 23:46:29 23:49:46 13° 68° (ENE) 23:53:04
UKube-1 29 Apr 23:55:41 23:59:44 41° 68° (ENE) 00:03:49 .
PCSat 30 Apr 00:01:07 00:04:50 18° 28° (NNE) 00:08:33 145.827
AISAT 30 Apr 00:05:23 00:09:49 70° 72° (ENE) 00:14:16 437.250
ESTCUBE 1 30 Apr 00:10:14 00:14:44 85° 257° (WSW) 00:19:15 437.505/2401.250
QB50P2 30 Apr 00:18:44 00:22:03 22° 93° (E) 00:25:21 145.880/145.840
POLYITAN 1 30 Apr 00:20:50 00:24:10 22° 93° (E) 00:27:28 437.675
DUCHIFAT 1 30 Apr 00:23:12 00:26:26 21° 92° (E) 00:29:39 145.980
POPSAT HIP 1 30 Apr 00:24:18 00:27:44 23° 93° (E) 00:31:08 437.405
QB50P1 30 Apr 00:27:47 00:31:21 25° 94° (E) 00:34:52 145.935-145.965
SPROUT 30 Apr 00:31:43 00:35:53 47° 70° (ENE) 00:40:03 437.525
O/OREOS (USA 219) 30 Apr 00:32:50 00:36:02 18° 46° (NE) 00:39:13 437.305
AIST 2 30 Apr 00:34:18 00:37:35 22° 326° (NW) 00:40:52 435.215
UNISAT 6 30 Apr 00:36:56 00:41:16 59° 288° (WNW) 00:45:30 437.425
AO-85 30 Apr 00:41:28 00:43:35 13° 254° (WSW) 00:45:39 145.980
JAS-2 30 Apr 00:42:36 00:44:37 11° 78° (ENE) 00:46:40 435.910
CUBEBUG 1 30 Apr 00:52:03 00:56:14 45° 261° (W) 01:00:30 437.445
TIGRISAT 30 Apr 00:55:49 00:59:57 41° 291° (WNW) 01:03:59 435.000
NANOSAT C BR1 30 Apr 01:04:07 01:08:19 56° 101° (E) 01:12:28 145.865
50 SAT 30 Apr 01:06:11 01:09:05 22° 266° (W) 01:12:01 437.505
AIST 1 30 Apr 01:08:37 01:12:13 26° 89° (E) 01:15:52
VELOX 1 30 Apr 01:10:56 01:14:48 29° 265° (W) 01:18:43 145.980
ITUPSAT 1 30 Apr 01:13:56 01:15:53 12° 54° (NE) 01:17:51 437.325
TISAT 1 30 Apr 01:18:14 01:22:19 47° 70° (ENE) 01:26:26 437.305
BUGSAT 1 30 Apr 01:18:40 01:22:40 38° 98° (E) 01:26:35 437.445
DX 1 30 Apr 01:19:37 01:23:16 26° 265° (W) 01:26:58 434.975-435.025
ANTELSAT 30 Apr 01:19:53 01:23:26 25° 296° (WNW) 01:26:55 437.575/2403.000
CUSAT 1 30 Apr 01:22:26 01:26:31 17° 58° (ENE) 01:31:01 437.405
SWISSCUBE 30 Apr 01:23:59 01:26:55 17° 57° (ENE) 01:29:53 437.505
UKube-1 30 Apr 01:32:30 01:35:57 23° 266° (W) 01:39:26 .
GONETS M04 30 Apr 01:35:58 01:44:34 59° 91° (E) 01:53:11
PCSat 30 Apr 01:43:56 01:49:22 62° 51° (NE) 01:54:44 145.827
AISAT 30 Apr 01:44:20 01:46:47 15° 271° (W) 01:49:16 437.250
Oscar 19 30 Apr 01:46:30 01:49:03 14° 87° (E) 01:51:34 437.125/150
ESTCUBE 1 30 Apr 01:51:41 01:52:16 10° 274° (W) 01:52:51 437.505/2401.250
RS-15 30 Apr 01:52:14 02:03:24 50° 330° (NNW) 02:15:09 29.354- 29.394
QB50P2 30 Apr 01:54:01 01:58:03 42° 291° (WNW) 02:02:02 145.880/145.840
POLYITAN 1 30 Apr 01:56:09 02:00:10 41° 291° (WNW) 02:04:08 437.675
BEESAT 30 Apr 01:56:16 02:00:17 28° 63° (ENE) 02:04:18 436.000
DUCHIFAT 1 30 Apr 01:58:19 02:02:21 43° 291° (WNW) 02:06:20 145.980
POPSAT HIP 1 30 Apr 01:59:41 02:03:40 39° 291° (WNW) 02:07:37 437.405
Cosmos 2499 30 Apr 02:00:57 02:07:30 42° 88° (E) 02:14:05 435.465 / 435.565
QB50P1 30 Apr 02:03:19 02:07:13 36° 292° (WNW) 02:11:05 145.935-145.965
SPROUT 30 Apr 02:08:54 02:12:06 20° 268° (W) 02:15:18 437.525
O/OREOS (USA 219) 30 Apr 02:11:27 02:15:59 74° 248° (WSW) 02:20:29 437.305
JAS-2 30 Apr 02:23:45 02:31:14 54° 98° (E) 02:38:54 435.910
NANOSAT C BR1 30 Apr 02:40:48 02:43:40 18° 299° (WNW) 02:46:32 145.865
AIST 1 30 Apr 02:45:49 02:49:43 33° 288° (WNW) 02:53:40
ITUPSAT 1 30 Apr 02:48:11 02:52:56 76° 73° (ENE) 02:57:42 437.325
BEESAT 3 30 Apr 02:50:15 02:52:44 16° 29° (NNE) 02:55:12 437.485
BEESAT 2 30 Apr 02:51:32 02:53:26 13° 24° (NNE) 02:55:18 435.950
Gurwin Techsat 1B 30 Apr 02:52:59 02:57:09 23° 91° (E) 03:01:18 435.225
BUGSAT 1 30 Apr 02:54:26 02:57:52 24° 296° (WNW) 03:01:15 437.445
TISAT 1 30 Apr 02:55:07 02:58:14 20° 268° (W) 03:01:22 437.305
MOZHAYETS 4 30 Apr 02:58:58 03:00:15 11° 55° (NE) 03:01:33
ITAMSAT 1 30 Apr 02:59:20 03:00:11 10° 85° (E) 03:01:04 435.822/435.867
SWISSCUBE 30 Apr 02:59:24 03:04:09 78° 256° (WSW) 03:08:57 437.505
CUSAT 1 30 Apr 03:02:59 03:09:37 68° 76° (ENE) 03:17:29 437.405
DANDE 30 Apr 03:16:23 03:22:01 45° 73° (ENE) 03:29:07 436.750
KKS-1 30 Apr 03:16:35 03:20:08 24° 62° (ENE) 03:23:43 437.445
Oscar 19 30 Apr 03:23:52 03:29:08 89° 117° (ESE) 03:34:20 437.125/150
PCSat 30 Apr 03:28:00 03:32:22 25° 251° (WSW) 03:36:42 145.827
BEESAT 30 Apr 03:33:24 03:37:54 42° 261° (W) 03:42:27 436.000
GONETS M04 30 Apr 03:33:44 03:41:50 38° 294° (WNW) 03:49:58
STARS 30 Apr 03:42:01 03:45:29 23° 62° (ENE) 03:48:59 437.465
Cosmos 2499 30 Apr 03:54:04 04:00:40 40° 290° (WNW) 04:07:19 435.465 / 435.565
RS-15 30 Apr 04:08:40 04:19:26 36° 3° (N) 04:30:32 29.354- 29.394
JAS-2 30 Apr 04:09:03 04:16:04 43° 297° (WNW) 04:23:19 435.910
AO-7 30 Apr 04:15:23 04:21:54 25° 91° (E) 04:28:22 29.400- 29.500
BEESAT 3 30 Apr 04:27:10 04:31:09 72° 51° (NE) 04:35:05 437.485
BEESAT 2 30 Apr 04:28:20 04:32:14 48° 46° (NE) 04:36:06 435.950
ITUPSAT 1 30 Apr 04:28:41 04:31:20 15° 271° (W) 04:34:00 437.325
MOZHAYETS 4 30 Apr 04:32:04 04:36:37 73° 74° (ENE) 04:41:12
Gurwin Techsat 1B 30 Apr 04:32:15 04:37:29 58° 290° (WNW) 04:42:41 435.225
CUBESAT XI-V 30 Apr 04:34:41 04:36:35 12° 55° (NE) 04:38:28 437.345
ITAMSAT 1 30 Apr 04:35:23 04:40:35 72° 103° (ESE) 04:45:46 435.822/435.867
SWISSCUBE 30 Apr 04:42:27 04:42:46 10° 275° (W) 04:43:05 437.505
CUSAT 1 30 Apr 04:45:44 04:51:28 30° 272° (W) 04:57:58 437.405
KKS-1 30 Apr 04:52:09 04:56:27 45° 260° (W) 05:00:48 437.445
DANDE 30 Apr 04:59:18 05:04:51 39° 267° (W) 05:11:41 436.750
Oscar 19 30 Apr 05:04:33 05:07:45 17° 305° (NW) 05:10:57 437.125/150
STARS 30 Apr 05:17:20 05:21:36 46° 261° (W) 05:25:54 437.465
AIST 2 30 Apr 05:34:30 05:38:01 25° 37° (NE) 05:41:30 435.215
JAS-2 30 Apr 05:56:42 05:59:16 12° 318° (NW) 06:01:53 435.910
YUBILEINY 30 Apr 05:57:49 06:05:34 34° 64° (ENE) 06:13:16 435.215
BEESAT 3 30 Apr 06:06:13 06:08:20 14° 249° (WSW) 06:10:26 437.485
HORYU 2 30 Apr 06:06:41 06:10:57 44° 99° (E) 06:15:10 437.375
BEESAT 2 30 Apr 06:06:43 06:09:50 22° 245° (WSW) 06:12:55 435.950
AO-7 30 Apr 06:07:16 06:15:38 85° 291° (WNW) 06:24:00 29.400- 29.500
CUBESAT XI-V 30 Apr 06:08:36 06:13:12 81° 75° (ENE) 06:17:51 437.345
MOZHAYETS 4 30 Apr 06:11:49 06:14:19 14° 272° (W) 06:16:50
STRAND 1 30 Apr 06:14:22 06:17:09 15° 54° (NE) 06:19:56 437.568
Gurwin Techsat 1B 30 Apr 06:14:54 06:16:22 11° 310° (NW) 06:17:49 435.225
ITAMSAT 1 30 Apr 06:15:52 06:19:32 20° 303° (WNW) 06:23:12 435.822/435.867
RS-15 30 Apr 06:23:19 06:35:14 55° 35° (NE) 06:47:18 29.354- 29.394
Cubesat XI-IV 30 Apr 06:28:00 06:28:38 10° 84° (E) 06:29:15 437.490
NOAA 15 30 Apr 06:34:41 06:38:21 19° 90° (E) 06:42:01 137.62
BRITE-PL 30 Apr 06:45:02 06:48:54 18° 87° (E) 06:52:45 437.365/2234.400
Cosmos 2491 30 Apr 06:46:16 06:53:12 27° 79° (E) 07:00:10 435.465 / 435.565
NOAA 18 30 Apr 07:08:25 07:13:13 31° 95° (E) 07:18:00 137.9125
AIST 2 30 Apr 07:12:43 07:16:47 55° 237° (WSW) 07:20:49 435.215
CUTE-I 30 Apr 07:21:15 07:25:58 31° 95° (E) 07:30:39 437.470
PRISM 30 Apr 07:21:23 07:21:51 10° 55° (NE) 07:22:19 437.425
Cosmos 2504 30 Apr 07:31:20 07:37:51 32° 66° (ENE) 07:44:41 435.465 / 435.565
LilacSat-2 30 Apr 07:41:20 07:45:00 41° 98° (E) 07:48:36 437.200
HORYU 2 30 Apr 07:43:45 07:47:16 23° 298° (WNW) 07:50:47 437.375
CUBESAT XI-V 30 Apr 07:49:06 07:51:13 13° 273° (W) 07:53:22 437.345
STRAND 1 30 Apr 07:50:28 07:55:34 84° 74° (ENE) 08:00:42 437.568
YUBILEINY 30 Apr 07:54:26 08:03:00 65° 267° (W) 08:11:34 435.215
SO-50 30 Apr 07:57:07 08:00:12 17° 110° (ESE) 08:03:18 436.795
AO-7 30 Apr 08:00:58 08:07:23 26° 314° (NW) 08:13:50 29.400- 29.500
Cubesat XI-IV 30 Apr 08:04:21 08:09:41 70° 102° (ESE) 08:14:59 437.490
GOMX 1 30 Apr 08:11:30 08:16:51 48° 97° (E) 08:22:00 467.674
NOAA 15 30 Apr 08:13:22 08:18:41 71° 288° (WNW) 08:23:58 137.62
BRITE-PL 30 Apr 08:22:16 08:27:58 80° 285° (WNW) 08:33:40 437.365/2234.400
DOVE 4 30 Apr 08:22:57 08:27:37 32° 93° (E) 08:32:05 437.250
RS-15 30 Apr 08:36:16 08:48:17 66° 242° (WSW) 09:00:21 29.354- 29.394
Cosmos 2491 30 Apr 08:40:18 08:49:08 78° 281° (W) 08:58:04 435.465 / 435.565
CANX-2 30 Apr 08:40:20 08:42:44 15° 89° (E) 08:45:08 2200.000
M-CUBED/EXP-1 PRIME 30 Apr 08:46:07 08:50:13 56° 106° (ESE) 08:53:57 437.505
NOAA 18 30 Apr 08:48:52 08:54:03 45° 294° (WNW) 08:59:12 137.9125
PRISM 30 Apr 08:52:22 08:56:26 78° 74° (ENE) 09:00:33 437.425
CUTE-I 30 Apr 09:01:08 09:06:08 43° 294° (WNW) 09:11:08 437.470
AUBIESAT-1 30 Apr 09:07:25 09:11:31 79° 107° (ESE) 09:15:17 437.475
CUTE 1.7 + AOD 2 30 Apr 09:12:48 09:16:25 27° 94° (E) 09:20:01 437.475
LilacSat-2 30 Apr 09:16:18 09:19:03 19° 296° (WNW) 09:21:47 437.200
Cosmos 2504 30 Apr 09:24:22 09:31:41 62° 267° (W) 09:39:29 435.465 / 435.565
ISS 30 Apr 09:27:39 09:30:23 25° 142° (SE) 09:33:08 145.825
CINEMA 3 30 Apr 09:27:56 09:32:28 41° 97° (E) 09:36:45 145.822/145.860
STRAND 1 30 Apr 09:32:39 09:35:25 15° 272° (W) 09:38:13 437.568
SO-50 30 Apr 09:35:09 09:40:06 84° 308° (NW) 09:45:02 436.795
HO-68 30 Apr 09:41:42 09:48:44 55° 101° (E) 09:55:44 435.675
SEEDS 30 Apr 09:45:08 09:49:08 43° 98° (E) 09:53:08 437.485
Cubesat XI-IV 30 Apr 09:45:21 09:49:16 21° 302° (WNW) 09:53:10 437.490
GOMX 1 30 Apr 09:49:56 09:54:41 30° 297° (WNW) 09:59:19 467.674
YUBILEINY 30 Apr 09:53:54 09:57:59 14° 290° (WNW) 10:02:06 435.215
COMPASS 1 30 Apr 09:53:57 09:57:52 39° 98° (E) 10:01:46 437.405
NOAA 15 30 Apr 09:55:02 09:57:33 14° 308° (NW) 10:00:05 137.62
DOVE 4 30 Apr 10:00:30 10:05:23 40° 293° (WNW) 10:10:03 437.250
BRITE-PL 30 Apr 10:02:12 10:05:36 17° 304° (NW) 10:09:03 437.365/2234.400
UNISAT 6 30 Apr 10:03:14 10:07:01 25° 64° (ENE) 10:10:45 437.425
CANX-2 30 Apr 10:14:51 10:19:01 62° 287° (WNW) 10:23:11 2200.000
TIGRISAT 30 Apr 10:21:17 10:25:29 34° 67° (ENE) 10:29:37 435.000
M-CUBED/EXP-1 PRIME 30 Apr 10:21:29 10:24:21 18° 306° (NW) 10:27:03 437.505
Oscar 11 30 Apr 10:22:35 10:26:19 28° 95° (E) 10:30:02 145.826/435.025
AAUSAT CUBESAT 2 30 Apr 10:27:32 10:31:41 73° 103° (ESE) 10:35:49 437.432
FUNcube-1 30 Apr 10:30:07 10:33:46 27° 94° (E) 10:37:20 145.935
DELFI C3 30 Apr 10:30:29 10:33:05 17° 91° (E) 10:35:42 145.870
PRISM 30 Apr 10:31:03 10:32:19 11° 272° (W) 10:33:36 437.425
UWE-3 30 Apr 10:33:17 10:37:27 44° 98° (E) 10:41:29 435.000/436.395/437.385
CUBEBUG 2 30 Apr 10:34:35 10:38:59 65° 101° (E) 10:43:13 437.445
Cosmos 2491 30 Apr 10:41:21 10:47:40 21° 306° (NW) 10:54:02 435.465 / 435.565
AUBIESAT-1 30 Apr 10:43:18 10:45:23 14° 309° (NW) 10:47:25 437.475
ANTELSAT 30 Apr 10:44:36 10:49:10 57° 72° (ENE) 10:53:41 437.575/2403.000
CUTE 1.7 + AOD 2 30 Apr 10:48:31 10:52:17 33° 293° (WNW) 10:56:04 437.475
RS-15 30 Apr 10:51:08 10:58:15 18° 265° (W) 11:05:24 29.354- 29.394
ISS 30 Apr 11:03:21 11:06:37 76° 341° (NNW) 11:09:54 145.825
HUMSAT D 30 Apr 11:03:31 11:06:18 17° 91° (E) 11:09:04 437.325/437.525
CINEMA 3 30 Apr 11:05:26 11:09:24 27° 297° (WNW) 11:13:13 145.822/145.860
ZACube-1 30 Apr 11:10:26 11:14:43 75° 102° (ESE) 11:18:53 437.345
AIST 1 30 Apr 11:12:46 11:14:19 12° 61° (ENE) 11:15:53
QB50P2 30 Apr 11:14:46 11:18:25 27° 65° (ENE) 11:22:04 145.880/145.840
POLYITAN 1 30 Apr 11:16:52 11:20:32 28° 65° (ENE) 11:24:12 437.675
SO-50 30 Apr 11:17:26 11:21:18 22° 330° (NNW) 11:25:09 436.795
DUCHIFAT 1 30 Apr 11:18:32 11:22:05 26° 65° (ENE) 11:25:39 145.980
POPSAT HIP 1 30 Apr 11:20:12 11:23:54 29° 66° (ENE) 11:27:38 437.405
Cosmos 2504 30 Apr 11:21:02 11:23:33 12° 287° (WNW) 11:26:08 435.465 / 435.565
SEEDS 30 Apr 11:21:25 11:24:37 22° 296° (WNW) 11:27:48 437.485
QB50P1 30 Apr 11:23:36 11:27:24 31° 67° (ENE) 11:31:13 145.935-145.965
HO-68 30 Apr 11:29:49 11:36:14 37° 301° (WNW) 11:42:38 435.675
COMPASS 1 30 Apr 11:29:57 11:33:15 23° 295° (WNW) 11:36:32 437.405
UNISAT 6 30 Apr 11:39:02 11:43:30 45° 261° (W) 11:47:56 437.425
GONETS M04 30 Apr 11:41:34 11:49:32 36° 65° (ENE) 11:57:22
Cosmos 2499 30 Apr 11:46:14 11:51:42 21° 59° (ENE) 11:57:24 435.465 / 435.565
AISAT 30 Apr 11:54:58 11:55:28 10° 86° (E) 11:55:58 437.250
TIGRISAT 30 Apr 11:57:59 12:02:09 32° 264° (W) 12:06:17 435.000
Oscar 11 30 Apr 11:58:37 12:02:29 33° 293° (WNW) 12:06:21 145.826/435.025
NANOSAT C BR1 30 Apr 11:59:30 12:03:44 68° 73° (ENE) 12:08:01 145.865
ESTCUBE 1 30 Apr 12:00:05 12:02:52 16° 89° (E) 12:05:39 437.505/2401.250
DELFI C3 30 Apr 12:04:24 12:08:15 48° 289° (WNW) 12:12:06 145.870
AAUSAT CUBESAT 2 30 Apr 12:04:29 12:06:39 14° 301° (WNW) 12:08:49 437.432
FUNcube-1 30 Apr 12:06:15 12:10:04 32° 293° (WNW) 12:13:47 145.935
UWE-3 30 Apr 12:10:20 12:13:39 22° 297° (WNW) 12:16:54 435.000/436.395/437.385
BUGSAT 1 30 Apr 12:11:38 12:15:40 44° 70° (ENE) 12:19:44 437.445
CUBEBUG 2 30 Apr 12:12:20 12:15:06 17° 301° (WNW) 12:17:49 437.445
ANTELSAT 30 Apr 12:22:56 12:26:13 19° 269° (W) 12:29:29 437.575/2403.000
50 SAT 30 Apr 12:31:50 12:34:49 23° 95° (E) 12:37:47 437.505
CUBEBUG 1 30 Apr 12:37:00 12:40:44 26° 94° (E) 12:44:27 437.445
HUMSAT D 30 Apr 12:38:16 12:42:14 48° 289° (WNW) 12:46:10 437.325/437.525
ISS 30 Apr 12:40:10 12:43:21 45° 1° (N) 12:46:30 145.825
JAS-2 30 Apr 12:40:39 12:46:00 33° 59° (ENE) 12:51:59 435.910
ZACube-1 30 Apr 12:48:12 12:50:27 14° 302° (WNW) 12:52:40 437.345
AIST 1 30 Apr 12:48:12 12:52:39 89° 109° (ESE) 12:57:03
QB50P2 30 Apr 12:50:12 12:54:07 34° 263° (W) 12:58:05 145.880/145.840
POLYITAN 1 30 Apr 12:52:19 12:56:14 34° 263° (W) 13:00:12 437.675
DUCHIFAT 1 30 Apr 12:53:42 12:57:39 36° 263° (W) 13:01:38 145.980
POPSAT HIP 1 30 Apr 12:55:45 12:59:38 32° 264° (W) 13:03:31 437.405
VELOX 1 30 Apr 12:56:36 13:00:49 39° 98° (E) 13:05:00 145.980
QB50P1 30 Apr 12:59:24 13:03:10 30° 265° (W) 13:06:58 145.935-145.965
SO-50 30 Apr 13:01:40 13:03:34 12° 354° (N) 13:05:28 436.795
DX 1 30 Apr 13:03:09 13:07:19 40° 98° (E) 13:11:28 434.975-435.025
Oscar 19 30 Apr 13:06:10 13:10:37 30° 63° (ENE) 13:15:05 437.125/150
PHONESAT 2.4 30 Apr 13:09:32 13:11:29 15° 166° (SSE) 13:13:26 2401.200-2431.200
UKube-1 30 Apr 13:14:45 13:18:56 43° 99° (E) 13:23:04 .
AO-85 30 Apr 13:17:58 13:21:14 16° 109° (ESE) 13:24:29 145.980
AISAT 30 Apr 13:28:09 13:32:40 84° 102° (ESE) 13:37:09 437.250
AO-7 30 Apr 13:30:44 13:35:07 16° 35° (NE) 13:39:30 29.400- 29.500
ESTCUBE 1 30 Apr 13:35:38 13:40:08 65° 288° (WNW) 13:44:37 437.505/2401.250
NANOSAT C BR1 30 Apr 13:37:42 13:39:58 14° 271° (W) 13:42:13 145.865
GONETS M04 30 Apr 13:38:17 13:46:54 62° 268° (W) 13:55:24
Cosmos 2499 30 Apr 13:38:20 13:45:56 86° 79° (E) 13:54:08 435.465 / 435.565
BUGSAT 1 30 Apr 13:48:04 13:51:16 21° 268° (W) 13:54:30 437.445
SPROUT 30 Apr 13:49:42 13:53:57 55° 100° (E) 13:58:10 437.525
50 SAT 30 Apr 14:05:27 14:08:39 29° 292° (WNW) 14:11:51 437.505
CUBEBUG 1 30 Apr 14:13:00 14:17:09 38° 292° (WNW) 14:21:15 437.445
ISS 30 Apr 14:16:45 14:20:02 83° 22° (NNE) 14:23:19 145.825
Gurwin Techsat 1B 30 Apr 14:17:27 14:22:35 51° 68° (ENE) 14:27:44 435.225
ITAMSAT 1 30 Apr 14:19:03 14:23:16 26° 61° (ENE) 14:27:30 435.822/435.867
JAS-2 30 Apr 14:24:58 14:30:46 53° 262° (W) 14:37:22 435.910
AIST 1 30 Apr 14:28:46 14:29:29 10° 280° (W) 14:30:13
VELOX 1 30 Apr 14:33:24 14:37:08 26° 296° (WNW) 14:40:51 145.980
TISAT 1 30 Apr 14:33:53 14:38:02 49° 100° (E) 14:42:08 437.305
DX 1 30 Apr 14:39:44 14:43:20 25° 297° (WNW) 14:46:55 434.975-435.025
SO-50 30 Apr 14:43:10 14:46:05 16° 19° (NNE) 14:48:58 436.795
Oscar 19 30 Apr 14:44:49 14:49:46 44° 262° (W) 14:54:45 437.125/150
PHONESAT 2.4 30 Apr 14:45:22 14:47:44 19° 183° (S) 14:50:05 2401.200-2431.200
ITUPSAT 1 30 Apr 14:46:15 14:48:55 15° 89° (E) 14:51:35 437.325
UKube-1 30 Apr 14:51:19 14:54:45 23° 297° (WNW) 14:58:10 .
AO-85 30 Apr 14:55:34 15:01:03 84° 127° (SE) 15:06:27 145.980
SWISSCUBE 30 Apr 14:56:29 15:00:02 20° 92° (E) 15:03:34 437.505
AISAT 30 Apr 15:06:09 15:08:33 14° 303° (WNW) 15:10:54 437.250
AO-7 30 Apr 15:18:09 15:25:58 49° 59° (ENE) 15:33:49 29.400- 29.500
SPROUT 30 Apr 15:26:32 15:29:33 19° 299° (WNW) 15:32:33 437.525
BEESAT 30 Apr 15:29:27 15:33:52 36° 97° (E) 15:38:15 436.000
Cosmos 2499 30 Apr 15:32:47 15:38:11 22° 281° (W) 15:43:51 435.465 / 435.565
HORYU 2 30 Apr 15:36:30 15:36:43 10° 53° (NE) 15:36:56 437.375
GONETS M04 30 Apr 15:38:05 15:41:45 13° 291° (WNW) 15:45:26
ISS 30 Apr 15:53:35 15:56:13 22° 219° (SW) 15:58:50 145.825
ITAMSAT 1 30 Apr 15:57:24 16:02:28 52° 260° (W) 16:07:32 435.822/435.867
Gurwin Techsat 1B 30 Apr 15:58:25 16:02:48 26° 267° (W) 16:07:14 435.225
TISAT 1 30 Apr 16:10:17 16:13:23 20° 298° (WNW) 16:16:27 437.305
CUSAT 1 30 Apr 16:12:41 16:15:53 37° 91° (E) 16:19:59 437.405
ITUPSAT 1 30 Apr 16:22:33 16:27:20 76° 287° (WNW) 16:32:06 437.325
PHONESAT 2.4 30 Apr 16:22:45 16:23:55 12° 200° (SSW) 16:25:05 2401.200-2431.200
SO-50 30 Apr 16:23:11 16:27:48 44° 43° (NE) 16:32:16 436.795
MOZHAYETS 4 30 Apr 16:24:56 16:27:05 13° 87° (E) 16:29:14
O/OREOS (USA 219) 30 Apr 16:27:03 16:31:36 63° 112° (ESE) 16:36:10 437.305
PCSat 30 Apr 16:30:17 16:34:36 25° 109° (ESE) 16:38:56 145.827
DANDE 30 Apr 16:33:10 16:35:21 19° 87° (E) 16:37:52 436.750
SWISSCUBE 30 Apr 16:33:31 16:38:11 54° 290° (WNW) 16:42:48 437.505
AO-85 30 Apr 16:37:34 16:42:11 27° 327° (NNW) 16:46:40 145.980
KKS-1 30 Apr 16:39:29 16:43:16 26° 94° (E) 16:47:00 437.445
Cosmos 2491 30 Apr 16:50:26 16:56:01 18° 51° (NE) 17:01:33 435.465 / 435.565
NOAA 18 30 Apr 17:00:40 17:03:57 16° 53° (NE) 17:07:13 137.9125
STARS 30 Apr 17:03:15 17:06:52 24° 94° (E) 17:10:27 437.465
BEESAT 30 Apr 17:07:25 17:11:35 31° 295° (WNW) 17:15:45 436.000
HORYU 2 30 Apr 17:07:59 17:12:26 66° 72° (ENE) 17:16:53 437.375
CUTE-I 30 Apr 17:10:16 17:12:49 14° 52° (NE) 17:15:22 437.470
AO-7 30 Apr 17:10:53 17:18:48 48° 260° (W) 17:26:46 29.400- 29.500
GOMX 1 30 Apr 17:48:21 17:50:39 13° 53° (NE) 17:53:01 467.674
Cubesat XI-IV 30 Apr 17:51:28 17:55:53 27° 61° (ENE) 18:00:18 437.490
CUSAT 1 30 Apr 17:55:39 17:58:24 19° 301° (WNW) 18:01:42 437.405
NOAA 15 30 Apr 17:57:59 18:02:55 42° 66° (ENE) 18:07:54 137.62
BRITE-PL 30 Apr 17:59:28 18:03:29 26° 61° (ENE) 18:07:46 437.365/2234.400
MOZHAYETS 4 30 Apr 18:00:15 18:04:51 79° 286° (WNW) 18:09:24
M-CUBED/EXP-1 PRIME 30 Apr 18:02:07 18:05:39 21° 55° (NE) 18:09:09 437.505
ITUPSAT 1 30 Apr 18:02:25 18:04:22 12° 306° (NW) 18:06:20 437.325
CUBESAT XI-V 30 Apr 18:02:28 18:05:21 16° 89° (E) 18:08:14 437.345
SO-50 30 Apr 18:03:57 18:08:10 32° 243° (WSW) 18:12:15 436.795
O/OREOS (USA 219) 30 Apr 18:07:56 18:11:26 21° 312° (NW) 18:14:57 437.305
PCSat 30 Apr 18:12:12 18:17:35 63° 309° (NW) 18:23:01 145.827
DANDE 30 Apr 18:15:43 18:18:05 21° 296° (WNW) 18:20:53 436.750
KKS-1 30 Apr 18:15:47 18:19:57 39° 293° (WNW) 18:24:06 437.445
AO-85 30 Apr 18:21:48 18:24:26 14° 351° (N) 18:27:00 145.980
AUBIESAT-1 30 Apr 18:22:38 18:26:29 26° 58° (ENE) 18:30:16 437.475
LilacSat-2 30 Apr 18:26:48 18:30:22 36° 69° (ENE) 18:33:56 437.200
HO-68 30 Apr 18:30:30 18:34:31 16° 44° (NE) 18:38:32 435.675
NOAA 18 30 Apr 18:38:17 18:43:49 82° 73° (ENE) 18:49:21 137.9125
STARS 30 Apr 18:39:13 18:43:23 40° 292° (WNW) 18:47:30 437.465
HORYU 2 30 Apr 18:46:47 18:49:26 15° 270° (W) 18:52:07 437.375
